Voltar ao catálogo

FENGYUN 1C DEB

AtivoPO
NORAD 31329·DEBRIS·🇨🇳 China

Lançado May 10, 1999 de Taiyuan Satellite Launch Center

Loading…

Próximas Passagens (próximas 24 horas)

TLE

EnvelhecendoSource: Space-Track

Época: Sep 7, 2026, 07:21 UTC

1 31329U 99025BQH 26250.30659293  .00003721  00000-0  59996-3 0  9999
2 31329  98.9068 265.6282 0050237 334.8214  25.0541 14.71322750 65609

Acompanhe FENGYUN 1C DEB em tempo real com AllMySat

Download on the App Store